Regional Weather Roundup
Issued by NWS

Home | Current Version | Previous Version | Graphics & Text | Print | Product List | Glossary On
Versions: 1 2 3 4 5 6 7 8 9 10 11 12 13 14 15 16 17 18 19 20 21 22 23 24 25 26 27 28 29 30 31 32 33 34 35 36 37 38 39 40 41 42 43 44 45 46 47 48 49 50
000
ASUS44 KMEG 171310
RWRTN
TENNESSEE HOURLY STATE WEATHER ROUNDUP
NATIONAL WEATHER SERVICE MEMPHIS TN
800 AM CDT THU APR 17 2014

TNZ002-004-019-021-049-052-054-088>092-171400-
WEST TENNESSEE

CITY           SKY/WX    TMP DP  RH WIND       PRES   REMARKS
MEMPHIS INTL   MOSUNNY   51  37  58 S12       30.27R
NWS MEMPHIS      N/A     51 N/A N/A MISG        N/A
JACKSON        SUNNY     51  35  54 S9        30.30R
DYERSBURG      SUNNY     50  32  50 S9        30.30R
UNION CITY     SUNNY     46  37  71 SE3       30.29R
PARIS          SUNNY     48  34  58 SE9       30.31R
LEXINGTON      SUNNY     46  36  66 CALM      30.30R
SAVANNAH       SUNNY     49  35  58 S8        30.31R
$$

TNZ008-025-027-028-033-062-065-066-171400-
NORTH MIDDLE TENNESSEE

CITY           SKY/WX    TMP DP  RH WIND       PRES   REMARKS
NASHVILLE      MOSUNNY   51  32  48 S12       30.36R
DICKSON        MOSUNNY   50  30  46 S13       30.31R
PORTLAND       SUNNY     48  32  53 S13       30.34R
CLARKSVILLE    SUNNY     50  35  56 SE5       30.33R
SMYRNA         MOSUNNY   48  36  63 SE5       30.38R
MURFREESBORO   MOSUNNY   50  31  48 SE5       30.36R
COOKEVILLE     SUNNY     48  32  53 S7        30.37R
LIVINGSTON     MOSUNNY   46  27  48 S9        30.37R
GALLATIN       MOSUNNY   48  36  63 SE5       30.37R
CROSSVILLE     MOSUNNY   48  26  42 S8        30.37R
$$

TNZ061-075-076-078-094-096-097-171400-
SOUTH MIDDLE TENNESSEE

CITY           SKY/WX    TMP DP  RH WIND       PRES   REMARKS
LEWISBURG      MOSUNNY   50  32  50 S3        30.35R
FAYETTEVILLE   SUNNY     47  31  54 SE10      30.34R
TULLAHOMA      SUNNY     48  27  43 SE12      30.36R
WINCHESTER     SUNNY     48  28  46 SE14      30.36R
MCMINNVILLE    SUNNY     50  28  43 S5        30.37R
COLUMBIA       SUNNY     52  37  58 S9        30.32R
SHELBYVILLE    MOSUNNY   50  32  50 SE7       30.36R
$$

TNZ017-018-042-046-047-171400-
NORTHEAST TENNESSEE

CITY           SKY/WX    TMP DP  RH WIND       PRES   REMARKS
TRI CITIES     MOSUNNY   44  24  45 NE7       30.44R
ELIZABETHTON   SUNNY     43  23  45 CALM      30.44R
$$

TNZ012-013-036-069-073-074-171400-
CENTRAL EAST TENNESSEE

CITY           SKY/WX    TMP DP  RH WIND       PRES   REMARKS
KNOXVILLE      PTSUNNY   43  34  70 NE5       30.40R
OAK RIDGE      PTSUNNY   43  34  70 CALM      30.41R
$$

TNZ083-085-099-171400-
SOUTHEAST TENNESSEE

CITY           SKY/WX    TMP DP  RH WIND       PRES   REMARKS
CHATTANOOGA    MOSUNNY   47  31  53 S8        30.41R
$$

SKY/WX REPORTED AS FAIR MEANS FEW OR NO CLOUDS BELOW
12 THOUSAND FEET.




USA.gov is the U.S. government's official web portal to all federal, state and local government web resources and services.